Location: Banff
(51.1667°N, 115.5667°W)
Time: 21:00:23
(UTC+00:00)

Vanguard 1 Rocket - Pass Details

Date: 01 December 2020
Orbit: 655 x 4221 km, 34.3° (Epoch: 17 January)

Event Time Altitude Azimuth Distance (km) Brightness Sun altitude
Exits shadow 10:08:59 47° 170° (S) 4,400 10.5 -47.8°
Drops below altitude 10° 10:24:30 10° 109° (ESE) 5,330 11.6 -45.6°
Sets 10:27:58 0° 103° (ESE) 5,941 12.1 -45.1°
